KF6ILA Weather Reports


time (UTC)temp
C
wind
direction
speed
KPH
gust
KPH
rain 1hr
cm
rain 24hr
cm
rain mn
cm
humidity
%
barometer
mb
20260504050724 6 271 41.8 57.9 0.00 0.00 0.00 97 1010.4
20260504050228 6 268 38.6 57.9 0.00 0.00 0.00 98 1010.0
20260504045731 6 270 38.6 57.9 0.00 0.00 0.00 98 1009.8
20260504045233 6 271 40.2 59.5 0.00 0.00 0.00 98 1010.3
20260504044737 6 260 35.4 59.5 0.00 0.00 0.00 98 1010.2
20260504044239 6 267 25.7 54.7 0.00 0.00 0.00 99 1010.0
20260504043742 6 261 32.2 48.3 0.00 0.00 0.00 99 1009.9
20260504043246 6 266 30.6 48.3 0.00 0.00 0.00 99 1009.9
20260504042749 6 255 24.1 46.7 0.00 0.00 0.00 99 1010.2
20260504042252 6 269 29.0 51.5 0.00 0.00 0.00 99 1009.9
20260504041755 6 264 37.0 51.5 0.00 0.00 0.00 99 1009.8
20260504041257 6 263 33.8 51.5 0.00 0.00 0.00 99 1009.9
20260504040800 6 262 33.8 51.5 0.00 0.00 0.00 99 1010.0
20260504040303 6 273 27.4 51.5 0.00 0.00 0.00 99 1010.1
20260504035806 6 267 33.8 51.5 0.00 0.00 0.00 99 1009.9
20260504035309 6 280 25.7 45.1 0.00 0.00 0.00 99 1010.0
20260504034813 6 272 24.1 45.1 0.00 0.00 0.00 98 1010.1
20260504034315 6 269 27.4 45.1 0.00 0.00 0.00 98 1010.0
20260504033818 6 274 32.2 46.7 0.00 0.00 0.00 98 1010.1
20260504033321 6 270 27.4 46.7 0.00 0.00 0.00 98 1010.9
20260504032327 6 278 25.7 41.8 0.00 0.00 0.00 98 1010.5
20260504031830 6 276 25.7 40.2 0.00 0.00 0.00 98 1010.6
20260504031333 6 278 29.0 37.0 0.00 0.00 0.00 98 1010.5
20260504030339 6 266 25.7 43.5 0.00 0.00 0.00 98 1010.2
20260504025842 6 273 29.0 43.5 0.00 0.00 0.00 98 1009.9
20260504025345 6 283 24.1 43.5 0.00 0.00 0.00 98 1009.9
20260504024849 6 268 25.7 48.3 0.00 0.00 0.00 97 1009.9
20260504024517 6 259 25.7 48.3 0.00 0.00 0.00 97 1010.0
20260504024352 6 259 25.7 48.3 0.00 0.00 0.00 97 1010.0
20260504023855 6 263 24.1 43.5 0.00 0.00 0.00 97 1010.1
20260504023358 7 286 24.1 43.5 0.00 0.00 0.00 97 1009.9
20260504022937 7 281 20.9 37.0 0.00 0.00 0.00 96 1010.2
20260504022901 7 281 20.9 37.0 0.00 0.00 0.00 96 1010.2
20260504022404 7 271 22.5 46.7 0.00 0.00 0.00 96 1010.1
20260504021907 7 278 29.0 46.7 0.00 0.00 0.00 96 1010.0
20260504021410 7 275 20.9 37.0 0.00 0.00 0.00 95 1009.7
20260504020913 7 272 24.1 51.5 0.00 0.00 0.00 95 1009.9
20260504020416 7 269 27.4 53.1 0.00 0.00 0.00 95 1009.8
20260504015919 7 257 35.4 56.3 0.00 0.00 0.00 94 1009.5
20260504015422 8 262 37.0 56.3 0.00 0.00 0.00 94 1009.6
20260504014925 8 270 25.7 53.1 0.00 0.00 0.00 94 1009.8
20260504014428 8 266 38.6 56.3 0.00 0.00 0.00 93 1009.8
20260504013931 8 259 37.0 56.3 0.00 0.00 0.00 93 1009.6
20260504013434 8 269 35.4 49.9 0.00 0.00 0.00 93 1009.5
20260504012440 9 268 35.4 49.9 0.00 0.00 0.00 92 1009.3
20260504011943 9 271 30.6 48.3 0.00 0.00 0.00 92 1009.4
20260504011446 9 266 37.0 48.3 0.00 0.00 0.00 92 1010.3
20260504011144 10 267 29.0 43.5 0.00 0.00 0.00 92 1010.2
20260504010949 10 267 29.0 43.5 0.00 0.00 0.00 92 1010.2
20260504010604 10 265 27.4 48.3 0.00 0.00 0.00 91 1010.3
20260504010451 10 265 27.4 48.3 0.00 0.00 0.00 91 1010.3
20260504005954 10 269 30.6 53.1 0.00 0.00 0.00 91 1010.2
20260504005457 10 269 24.1 53.1 0.00 0.00 0.00 91 1010.1
20260504005000 10 264 37.0 49.9 0.00 0.00 0.00 91 1010.3
20260504004632 10 270 35.4 49.9 0.00 0.00 0.00 90 1010.0
20260504004503 10 270 35.4 49.9 0.00 0.00 0.00 90 1010.0
20260504003510 10 267 33.8 48.3 0.00 0.00 0.00 90 1010.2
20260504003012 10 270 35.4 48.3 0.00 0.00 0.00 89 1009.9
20260504002736 10 263 32.2 46.7 0.00 0.00 0.00 89 1009.9
20260504002515 10 263 32.2 46.7 0.00 0.00 0.00 89 1009.9
20260504002120 10 266 30.6 45.1 0.00 0.00 0.00 89 1009.8
20260504002021 10 266 30.6 45.1 0.00 0.00 0.00 89 1009.8
20260504001025 10 268 32.2 48.3 0.00 0.00 0.00 89 1009.4
20260504000528 10 268 30.6 38.6 0.00 0.00 0.00 89 1010.1
20260504000031 10 260 25.7 45.1 0.00 0.00 0.00 90 1010.1
20260503235534 10 266 32.2 45.1 0.00 0.00 0.00 89 1009.9
20260503235036 10 263 32.2 45.1 0.00 0.00 0.00 89 1009.8
20260503234637 10 267 29.0 48.3 0.00 0.00 0.00 89 1009.8
20260503234540 10 267 29.0 48.3 0.00 0.00 0.00 89 1009.8
20260503234043 10 271 33.8 48.3 0.00 0.00 0.00 89 1009.9
20260503233937 10 271 29.0 41.8 0.00 0.00 0.00 90 1009.8
20260503233744 10 271 29.0 41.8 0.00 0.00 0.00 90 1009.8
20260503233550 10 271 29.0 41.8 0.00 0.00 0.00 90 1009.8
20260503233410 10 269 30.6 38.6 0.00 0.00 0.00 90 1009.8
20260503233134 10 269 30.6 38.6 0.00 0.00 0.00 90 1009.8
20260503233049 10 269 30.6 38.6 0.00 0.00 0.00 90 1009.8
20260503232707 11 261 25.7 37.0 0.00 0.00 0.00 90 1009.8
20260503232552 11 261 25.7 37.0 0.00 0.00 0.00 90 1009.8
20260503232246 11 271 22.5 40.2 0.00 0.00 0.00 89 1009.8
20260503232055 11 271 22.5 40.2 0.00 0.00 0.00 89 1009.8
20260503231558 11 272 27.4 48.3 0.00 0.00 0.00 88 1009.8
20260503231151 11 265 27.4 48.3 0.00 0.00 0.00 87 1009.8
20260503231101 11 265 27.4 48.3 0.00 0.00 0.00 87 1009.8
20260503230603 11 264 29.0 45.1 0.00 0.00 0.00 86 1009.8
20260503230106 11 272 35.4 45.1 0.00 0.00 0.00 86 1009.7
20260503225610 11 269 29.0 48.3 0.00 0.00 0.00 87 1010.0
20260503225113 11 266 30.6 48.3 0.00 0.00 0.00 88 1009.7
20260503224616 11 264 27.4 46.7 0.00 0.00 0.00 88 1009.8
20260503224211 11 274 33.8 49.9 0.00 0.00 0.00 89 1009.7
20260503224119 11 274 33.8 49.9 0.00 0.00 0.00 89 1009.7
20260503223623 11 263 30.6 49.9 0.00 0.00 0.00 89 1010.6
20260503223125 11 257 27.4 53.1 0.00 0.00 0.00 89 1010.6
20260503222628 11 268 30.6 53.1 0.00 0.00 0.00 89 1010.4
20260503222131 11 265 33.8 51.5 0.00 0.00 0.00 88 1010.3
20260503221858 11 270 35.4 51.5 0.00 0.00 0.00 87 1010.5
20260503221634 11 270 35.4 51.5 0.00 0.00 0.00 87 1010.5
20260503221218 12 262 33.8 46.7 0.00 0.00 0.00 88 1010.5
20260503221137 12 262 33.8 46.7 0.00 0.00 0.00 88 1010.5
20260503220640 12 270 29.0 46.7 0.00 0.00 0.00 88 1010.3
20260503220318 12 264 37.0 48.3 0.00 0.00 0.00 87 1010.5
20260503220143 12 264 37.0 48.3 0.00 0.00 0.00 87 1010.5
20260503215731 12 269 37.0 48.3 0.00 0.00 0.00 86 1010.5
20260503215646 12 269 37.0 48.3 0.00 0.00 0.00 86 1010.5
20260503215235 12 265 32.2 48.3 0.00 0.00 0.00 86 1010.4
20260503215149 12 265 32.2 48.3 0.00 0.00 0.00 86 1010.4
20260503214831 12 277 33.8 48.3 0.00 0.00 0.00 86 1010.3
20260503214652 12 277 33.8 48.3 0.00 0.00 0.00 86 1010.3
20260503214231 12 269 32.2 46.7 0.00 0.00 0.00 87 1010.4
20260503214155 12 269 32.2 46.7 0.00 0.00 0.00 87 1010.4
20260503213917 12 275 32.2 48.3 0.00 0.00 0.00 85 1010.5
20260503213658 12 275 32.2 48.3 0.00 0.00 0.00 85 1010.5
20260503213301 12 270 35.4 48.3 0.00 0.00 0.00 86 1010.6
20260503213200 12 270 35.4 48.3 0.00 0.00 0.00 86 1010.6
20260503212703 12 272 27.4 43.5 0.00 0.00 0.00 87 1010.6
20260503211710 12 281 25.7 45.1 0.00 0.00 0.00 87 1010.7
20260503210715 12 268 24.1 37.0 0.00 0.00 0.00 87 1010.7
20260503210219 12 278 22.5 37.0 0.00 0.00 0.00 89 1010.9
20260503205722 12 261 25.7 38.6 0.00 0.00 0.00 89 1010.8
20260503205306 12 264 22.5 41.8 0.00 0.00 0.00 89 1011.0
20260503205224 12 264 22.5 41.8 0.00 0.00 0.00 89 1011.0
20260503203734 11 269 20.9 37.0 0.00 0.00 0.00 93 1010.8
20260503203400 11 289 24.1 37.0 0.00 0.00 0.00 93 1010.7
20260503203237 11 289 24.1 37.0 0.00 0.00 0.00 93 1010.7
20260503202740 11 289 24.1 33.8 0.00 0.00 0.00 93 1010.8
20260503202243 11 277 19.3 37.0 0.00 0.00 0.00 94 1011.2
20260503201746 11 286 22.5 37.0 0.00 0.00 0.00 94 1011.2
20260503201249 11 301 25.7 33.8 0.00 0.00 0.00 94 1011.0
20260503200752 11 297 20.9 35.4 0.00 0.00 0.00 93 1011.1
20260503200336 11 296 25.7 35.4 0.00 0.00 0.00 92 1011.9
20260503200255 11 296 25.7 35.4 0.00 0.00 0.00 92 1011.9
20260503195830 11 292 20.9 33.8 0.00 0.00 0.00 90 1011.8
20260503195758 11 292 20.9 33.8 0.00 0.00 0.00 90 1011.8
20260503194923 12 295 19.3 30.6 0.00 0.00 0.00 85 1011.9
20260503194804 12 295 19.3 30.6 0.00 0.00 0.00 85 1011.9
20260503193313 15 296 17.7 29.0 0.00 0.00 0.00 81 1011.8
20260503192934 15 311 17.7 29.0 0.00 0.00 0.00 81 1011.9
20260503192816 15 311 17.7 29.0 0.00 0.00 0.00 81 1011.9
20260503191822 16 321 17.7 32.2 0.00 0.00 0.00 75 1011.9
20260503191325 16 304 16.1 32.2 0.00 0.00 0.00 75 1012.0
20260503190418 17 279 17.7 32.2 0.00 0.00 0.00 71 1012.0
20260503190331 17 279 17.7 32.2 0.00 0.00 0.00 71 1012.0
20260503183349 19 243 17.7 33.8 0.00 0.00 0.00 45 1012.3
20260503182355 18 262 9.7 24.1 0.00 0.00 0.00 55 1012.1
20260503181858 17 262 11.3 22.5 0.00 0.00 0.00 61 1012.3
20260503180904 17 313 9.7 22.5 0.00 0.00 0.00 61 1012.4
20260503180407 17 273 12.9 24.1 0.00 0.00 0.00 65 1012.4
20260503175943 17 273 12.9 24.1 0.00 0.00 0.00 65 1012.3
20260503175910 17 273 12.9 24.1 0.00 0.00 0.00 65 1012.3
20260503175413 17 231 14.5 29.0 0.00 0.00 0.00 65 1012.3
20260503174916 17 263 12.9 29.0 0.00 0.00 0.00 68 1012.2
20260503174419 17 278 19.3 29.0 0.00 0.00 0.00 68 1012.2
20260503173922 17 284 14.5 22.5 0.00 0.00 0.00 69 1012.2
20260503172928 16 259 11.3 24.1 0.00 0.00 0.00 72 1012.1
20260503171934 17 287 19.3 27.4 0.00 0.00 0.00 69 1012.1
20260503130707 11 273 12.9 17.7 0.00 0.00 0.00 65 1010.2
20260503130210 12 266 9.7 14.5 0.00 0.00 0.00 63 1010.0
20260503110819 14 286 17.7 27.4 0.00 0.00 0.00 43 1010.6
20260503090434 16 269 14.5 17.7 0.00 0.00 0.00 30 1011.7
20260503081504 16 272 14.5 20.9 0.00 0.00 0.00 29 1012.2
20260503071043 16 258 14.5 20.9 0.00 0.00 0.00 30 1012.8
20260503070618 16 259 12.9 22.5 0.00 0.00 0.00 29 1012.8
20260503070546 16 259 12.9 22.5 0.00 0.00 0.00 29 1012.8
20260503060125 16 264 14.5 19.3 0.00 0.00 0.00 29 1013.1
20260503054634 17 272 14.5 22.5 0.00 0.00 0.00 29 1013.2